Location: Binningen
(47.7924°N, 8.7261°E)
Time: 07:21:24
(UTC+00:00)

DNEPR-1 R/B - Pass Details

Date: 17 May 2021
Orbit: 587 x 1334 km, 64.6° (Epoch: 20 June)

Event Time Altitude Azimuth Distance (km) Brightness Sun altitude
Rises 20:59:59 0° 216° (SW) 3,666 7.3 -15.6°
Reaches altitude 10° 21:02:46 10° 217° (SW) 2,600 6.5 -15.8°
Maximum altitude 21:08:43 90° 300° (WNW) 793 4.0 -16.4°
Drops below altitude 10° 21:13:38 10° 38° (NE) 2,162 6.6 -16.8°
Sets 21:15:46 0° 39° (NE) 3,006 7.4 -17.0°
